Wind_Speed
45 45 45 45 45 45 44 44 44 43 43 43 44 44 44 44 44 44 44 44 44 44 44 44 44 44 44 44 45 45 45 45 45 44 44 44 44 45 45 45 46 46 45
46 46 46 46 45 45 45 44 43 43 42 42 42 43 43 44 44 45 45 45 45 45 44 44 44 44 45 45 46 46 45 45 45 43 42 43 43 44 45 45 45 46 46
46 46 47 47 46 45 45 44 44 44 44 43 43 42 43 43 44 45 45 45 45 44 44 44 44 44 44 44 44 44 44 44 43 42 42 42 43 44 44 45 45 46 47
46 46 47 47 47 46 45 45 45 45 45 44 44 44 43 43 44 44 45 45 44 44 43 43 43 43 43 43 43 43 43 43 43 42 42 43 43 44 44 45 46 47 46
45 45 46 46 47 47 46 45 45 46 46 46 46 45 45 45 45 45 45 45 45 44 44 43 43 43 43 43 43 43 43 43 44 44 44 44 44 45 45 45 46 45 45
43 44 45 45 46 46 46 46 45 45 46 46 46 46 46 46 46 46 46 46 45 45 44 44 44 44 44 44 44 44 44 44 45 45 45 45 45 45 45 45 45 45 46
41 42 42 43 44 44 45 46 45 45 45 46 47 47 47 46 46 46 46 46 46 46 46 45 45 45 45 45 45 45 45 45 46 46 46 46 45 45 45 45 45 46 46
39 39 40 41 42 43 44 45 45 45 45 46 46 46 46 47 47 47 47 47 47 46 46 46 45 45 45 45 46 46 46 46 46 46 45 44 44 44 45 46 46 47 46
39 39 39 40 41 41 43 44 45 45 45 45 46 46 46 46 46 46 46 46 46 46 45 46 45 45 45 45 45 45 45 45 45 44 44 44 44 44 45 45 46 46 46
39 39 39 39 39 40 41 42 43 43 43 44 44 44 44 45 45 45 45 45 45 45 45 45 45 45 45 44 44 44 44 44 43 43 44 43 43 44 44 44 45 45 45
39 39 38 38 38 39 39 40 40 41 41 42 42 42 42 42 43 44 44 43 43 43 43 44 44 43 43 43 42 42 42 42 42 43 43 42 42 42 42 42 42 43 43
40 39 39 38 38 38 38 39 39 39 39 39 40 40 41 41 41 41 42 42 42 42 42 41 41 41 40 40 40 40 40 40 41 41 41 41 41 41 40 40 41 41 41
40 40 40 40 39 39 40 39 39 38 37 37 38 38 38 39 39 40 40 40 40 39 39 38 38 38 39 39 39 38 38 38 39 39 39 39 39 39 39 39 39 39 41
39 40 40 41 41 40 39 39 38 37 36 36 35 35 36 36 36 37 37 36 36 37 37 37 37 37 37 38 38 38 37 37 36 37 37 37 37 38 39 39 39 39 40
36 37 37 38 38 38 38 38 37 36 35 35 34 34 34 34 34 34 35 35 35 35 35 35 35 36 36 36 37 36 36 35 35 35 35 36 37 37 38 38 38 38 39
34 34 34 35 35 36 36 36 36 35 35 34 33 33 32 33 33 33 34 34 34 34 34 34 35 35 35 35 35 35 35 35 35 35 34 35 35 36 37 37 37 37 37
32 32 32 33 33 33 33 34 34 35 34 34 34 33 32 32 32 32 33 34 34 34 34 34 34 34 34 34 34 34 34 34 34 33 33 34 34 35 36 36 36 36 36
30 30 31 31 31 31 32 32 33 33 34 34 33 33 32 31 31 31 32 33 33 34 33 33 33 33 33 33 33 33 33 34 34 33 33 34 34 34 35 35 35 35 36
29 30 30 30 31 31 31 32 32 32 33 33 32 32 31 31 31 31 30 31 31 32 32 32 32 32 31 32 32 32 33 33 34 34 34 34 34 33 34 34 34 34 35
28 29 29 30 30 31 31 32 32 32 32 32 32 31 31 30 30 30 29 29 29 29 30 30 29 30 30 31 31 31 32 32 33 33 33 33 33 33 33 33 33 33 33
28 29 29 29 29 30 30 31 32 32 31 31 31 31 30 30 29 29 29 29 28 28 28 28 28 28 29 29 29 30 31 31 31 32 32 32 32 32 32 32 32 32 32
26 27 28 28 28 29 29 30 30 30 30 30 30 30 29 29 29 29 29 29 29 29 29 29 29 29 29 29 29 29 29 30 31 31 31 31 31 31 32 32 32 32 32
24 24 25 26 26 27 27 28 28 29 29 29 29 30 30 29 29 29 29 29 29 29 29 29 29 28 28 28 28 29 29 29 30 30 30 30 30 30 30 31 31 31 32
23 23 24 24 25 25 26 27 28 28 28 28 29 29 29 29 29 29 29 29 28 29 29 29 29 28 28 28 28 28 28 28 28 28 28 29 29 29 30 30 31 31 31
22 22 23 24 24 25 25 26 27 27 28 28 28 28 28 28 28 28 28 28 28 28 28 28 29 28 28 28 28 28 27 27 28 28 28 28 29 29 30 30 30 31 31
21 22 22 23 24 24 25 26 26 26 27 27 27 27 28 28 28 28 28 29 28 28 28 28 28 28 28 27 28 28 28 28 28 28 28 29 29 29 30 30 30 30 30
Wind_Direction
246 246 247 247 248 249 249 249 250 251 251 253 254 254 255 256 257 258 259 259 260 260 261 262 263 263 262 262 262 264 265 265 266 266 267 268 268 269 268 268 267 268 268
246 246 247 247 247 248 248 249 250 251 252 253 253 254 256 257 258 259 260 260 261 261 261 262 263 264 264 264 264 265 266 266 266 267 267 268 268 268 268 268 267 267 268
246 246 246 247 247 248 249 250 251 252 253 254 254 256 257 258 260 260 261 261 261 261 262 262 263 264 264 265 265 266 266 266 266 266 267 268 269 269 268 268 268 268 269
247 247 247 248 248 249 250 252 252 252 253 254 255 257 258 259 259 260 260 260 261 262 263 263 263 264 264 265 265 266 266 266 266 267 268 270 270 271 270 270 270 270 269
248 248 249 249 249 249 250 252 252 253 253 254 256 257 258 259 259 259 260 260 260 261 262 263 263 263 264 264 265 265 265 266 267 268 270 271 272 271 271 271 271 271 269
248 249 248 249 250 250 250 251 252 253 254 254 255 257 258 259 259 259 260 259 260 261 262 263 263 263 263 264 264 265 265 266 267 268 271 273 273 272 272 271 271 271 270
247 247 247 247 249 250 250 251 252 252 253 254 256 257 258 259 259 260 259 259 259 260 262 262 263 263 263 263 264 265 265 268 269 269 270 271 271 271 271 271 271 271 271
247 246 246 248 249 250 250 250 251 252 254 255 256 256 257 257 258 259 259 259 259 260 262 262 262 262 263 264 264 264 266 268 269 270 271 271 271 271 271 271 271 272 271
246 247 247 248 249 250 250 250 252 253 254 255 256 256 256 257 258 258 259 259 259 260 261 262 262 262 263 264 264 265 266 267 268 269 270 270 270 271 271 272 272 272 271
246 246 247 247 249 250 250 251 252 253 255 256 257 257 256 257 257 258 259 260 260 260 261 261 263 263 263 263 264 266 267 266 266 267 268 269 270 271 271 272 273 273 273
245 246 247 248 249 250 250 252 253 255 257 257 257 257 257 257 257 258 259 259 260 260 261 261 262 262 263 263 264 265 265 265 266 267 267 268 270 271 271 272 273 274 274
246 247 248 250 251 252 252 253 255 257 257 257 257 257 257 257 257 258 258 258 259 259 259 259 259 260 261 261 262 264 265 265 265 266 267 268 269 269 270 272 272 273 273
247 248 249 251 252 252 253 254 256 257 256 256 257 257 258 258 258 257 257 257 257 257 258 258 258 259 260 260 261 263 265 266 266 266 267 267 267 268 270 271 272 272 273
248 249 250 251 252 253 254 254 254 254 254 255 256 257 257 258 258 257 256 256 256 256 256 257 258 258 259 260 261 263 264 265 267 267 268 268 268 268 269 271 272 273 274
249 250 250 251 251 252 253 253 253 252 252 253 254 255 256 257 257 257 256 256 256 256 256 256 257 258 259 260 261 262 263 264 266 268 268 268 269 269 270 271 272 273 274
249 249 250 250 250 250 251 252 252 251 251 252 253 254 256 256 255 255 255 255 255 255 255 256 257 257 258 259 260 261 263 264 266 267 268 269 269 269 269 270 272 273 274
249 249 250 250 249 249 249 250 250 250 250 251 252 253 254 255 255 255 255 254 254 254 255 256 256 256 257 258 259 261 262 263 265 266 267 268 269 269 270 271 272 273 274
249 249 249 250 249 248 247 247 248 249 250 250 250 251 251 252 253 254 254 254 254 253 254 255 256 256 257 258 260 261 262 264 265 266 268 269 270 270 271 272 273 274 274
249 249 248 248 248 248 248 248 247 247 247 247 248 249 250 251 252 252 253 254 254 254 254 255 255 255 256 258 261 263 264 265 265 266 268 269 270 270 272 272 273 274 275
248 248 247 246 247 248 248 247 247 246 246 245 246 247 248 248 249 250 251 252 252 252 252 253 254 255 257 260 262 263 264 265 266 267 269 269 269 270 272 273 274 274 275
247 247 247 246 246 247 248 247 246 245 245 245 245 245 246 246 247 247 248 249 249 250 251 252 255 258 260 261 262 264 265 265 266 268 269 270 270 272 274 275 274 274 276
248 248 248 247 247 247 247 246 245 245 244 244 244 243 244 245 246 246 247 247 247 249 251 253 256 258 261 262 263 264 265 266 267 269 270 271 271 273 274 274 274 274 276
247 247 248 247 247 247 246 245 244 243 242 243 244 244 244 245 246 246 246 246 248 250 252 254 256 257 258 260 262 264 266 267 268 270 271 271 272 273 274 274 274 274 275
247 248 248 248 247 247 246 244 243 241 241 242 243 243 244 244 245 246 246 247 248 250 252 253 255 257 259 261 262 264 266 268 269 270 271 272 272 273 273 274 274 274 275
247 248 249 249 248 247 247 245 243 242 242 241 242 242 244 245 245 246 247 248 248 249 250 252 254 256 258 259 261 263 265 267 269 270 271 272 272 273 274 275 275 274 275
248 249 250 249 249 248 247 245 243 242 242 242 242 242 243 244 245 246 248 249 249 249 251 253 254 256 257 259 261 263 265 266 268 270 272 273 273 274 274 275 275 275 275
Height
5622 5625 5628 5631 5633 5636 5639 5642 5645 5647 5650 5652 5654 5657 5659 5661 5663 5665 5666 5667 5669 5669 5670 5671 5672 5673 5673 5675 5676 5677 5677 5678 5679 5681 5681 5681 5681 5681 5680 5680 5680 5680 5681
5610 5613 5616 5619 5622 5625 5628 5631 5634 5636 5638 5641 5643 5646 5648 5649 5651 5653 5654 5656 5657 5658 5659 5659 5660 5661 5662 5663 5664 5665 5666 5667 5667 5669 5669 5669 5670 5669 5669 5669 5669 5669 5669
5598 5601 5604 5608 5611 5614 5617 5619 5622 5625 5627 5630 5632 5634 5636 5638 5639 5641 5642 5644 5645 5646 5647 5648 5649 5649 5651 5652 5652 5653 5654 5655 5656 5657 5658 5658 5658 5657 5657 5657 5657 5657 5657
5586 5589 5592 5596 5599 5602 5605 5608 5610 5613 5616 5618 5620 5622 5624 5626 5628 5629 5631 5632 5633 5634 5635 5636 5637 5639 5640 5641 5641 5642 5643 5644 5644 5645 5646 5646 5646 5645 5645 5645 5645 5645 5645
5574 5577 5580 5584 5587 5590 5593 5595 5598 5601 5604 5606 5608 5610 5612 5614 5616 5617 5619 5620 5622 5623 5624 5625 5626 5627 5628 5629 5630 5631 5632 5632 5633 5633 5634 5634 5634 5634 5634 5633 5633 5632 5632
5563 5566 5569 5572 5575 5578 5581 5583 5586 5588 5591 5593 5596 5598 5600 5602 5604 5605 5606 5608 5610 5611 5613 5614 5615 5616 5617 5618 5619 5619 5620 5621 5621 5621 5622 5622 5621 5621 5621 5620 5620 5620 5620
5551 5554 5557 5560 5563 5566 5568 5571 5573 5576 5578 5581 5583 5585 5587 5589 5591 5592 5594 5595 5597 5599 5601 5602 5603 5604 5605 5606 5607 5607 5608 5608 5609 5609 5609 5609 5609 5609 5608 5608 5607 5607 5607
5541 5543 5546 5549 5551 5554 5556 5559 5561 5564 5566 5568 5570 5572 5574 5576 5578 5579 5581 5583 5585 5587 5589 5590 5591 5592 5593 5594 5595 5595 5596 5596 5596 5596 5597 5596 5596 5595 5595 5595 5594 5594 5594
5531 5533 5535 5538 5540 5543 5545 5547 5549 5552 5554 5555 5557 5559 5561 5563 5565 5566 5568 5570 5572 5574 5576 5578 5579 5580 5581 5581 5582 5583 5583 5584 5583 5583 5583 5583 5583 5583 5582 5582 5582 5581 5581
5520 5523 5525 5527 5530 5532 5534 5536 5538 5540 5541 5543 5545 5546 5548 5550 5552 5553 5555 5557 5560 5562 5563 5564 5566 5567 5567 5568 5569 5570 5570 5571 5571 5571 5571 5571 5571 5571 5570 5570 5569 5569 5568
5510 5512 5515 5517 5519 5521 5523 5525 5526 5528 5530 5531 5533 5534 5536 5537 5539 5541 5543 5545 5546 5548 5550 5552 5553 5554 5555 5556 5556 5557 5558 5558 5559 5559 5559 5559 5559 5559 5558 5558 5557 5557 5556
5499 5502 5504 5506 5508 5510 5512 5514 5515 5517 5518 5520 5521 5522 5524 5525 5527 5529 5531 5532 5534 5536 5538 5539 5540 5542 5543 5544 5544 5545 5546 5546 5547 5547 5547 5548 5548 5547 5547 5546 5545 5544 5544
5487 5490 5493 5495 5497 5499 5501 5503 5504 5506 5508 5509 5510 5512 5513 5514 5516 5518 5519 5521 5522 5524 5526 5527 5529 5530 5531 5532 5533 5534 5535 5535 5535 5535 5536 5536 5536 5536 5536 5535 5534 5533 5533
5476 5478 5481 5484 5486 5488 5490 5492 5494 5495 5497 5498 5500 5501 5503 5504 5505 5507 5508 5510 5512 5513 5515 5517 5518 5519 5520 5522 5522 5523 5524 5524 5524 5525 5525 5525 5525 5525 5525 5524 5524 5523 5522
5464 5467 5470 5472 5474 5477 5479 5481 5483 5485 5486 5488 5490 5491 5493 5494 5495 5497 5498 5500 5501 5503 5504 5506 5508 5509 5510 5511 5512 5513 5513 5514 5514 5514 5514 5514 5514 5514 5514 5514 5513 5512 5512
5454 5457 5459 5461 5464 5466 5468 5470 5472 5475 5476 5478 5480 5482 5483 5484 5486 5487 5489 5490 5491 5493 5495 5496 5497 5499 5500 5501 5502 5502 5503 5503 5504 5504 5504 5504 5504 5504 5503 5503 5502 5501 5501
5444 5447 5449 5451 5453 5455 5458 5460 5462 5465 5467 5469 5470 5472 5474 5475 5476 5478 5479 5480 5482 5483 5485 5486 5488 5489 5490 5491 5492 5492 5493 5493 5493 5493 5494 5494 5494 5493 5493 5492 5492 5491 5490
5435 5437 5439 5441 5443 5445 5447 5450 5452 5454 5457 5459 5461 5462 5464 5466 5467 5468 5470 5471 5473 5474 5475 5477 5478 5479 5480 5481 5482 5482 5483 5483 5484 5484 5484 5484 5483 5483 5482 5482 5481 5480 5480
5425 5427 5429 5431 5434 5436 5438 5440 5442 5444 5446 5449 5451 5453 5455 5456 5458 5459 5460 5462 5463 5465 5466 5467 5469 5470 5471 5472 5472 5473 5473 5473 5474 5474 5474 5474 5473 5473 5472 5472 5471 5470 5469
5416 5418 5420 5422 5424 5426 5428 5430 5432 5434 5436 5439 5441 5443 5445 5447 5448 5450 5452 5453 5454 5456 5457 5458 5460 5461 5461 5462 5463 5463 5463 5464 5464 5464 5464 5464 5463 5463 5463 5462 5461 5460 5459
5407 5409 5411 5413 5415 5417 5419 5420 5422 5425 5427 5429 5432 5434 5435 5438 5439 5441 5443 5444 5446 5447 5449 5450 5451 5452 5453 5453 5453 5454 5454 5454 5454 5454 5454 5454 5454 5453 5453 5452 5451 5451 5450
5398 5400 5402 5403 5405 5407 5409 5411 5413 5415 5418 5420 5422 5425 5427 5429 5431 5433 5434 5436 5437 5439 5440 5441 5442 5443 5444 5444 5445 5445 5445 5444 5444 5445 5444 5444 5444 5444 5443 5443 5442 5442 5441
5390 5392 5393 5395 5396 5398 5400 5402 5404 5406 5409 5411 5413 5416 5418 5420 5422 5424 5426 5427 5429 5430 5431 5433 5433 5434 5435 5435 5436 5436 5436 5435 5435 5435 5435 5435 5435 5434 5434 5433 5433 5432 5432
5383 5384 5386 5387 5388 5390 5392 5394 5396 5398 5400 5402 5405 5407 5409 5411 5413 5415 5417 5418 5420 5421 5423 5424 5425 5425 5426 5426 5427 5427 5427 5426 5426 5426 5426 5426 5425 5425 5425 5424 5424 5423 5423
5376 5377 5378 5379 5381 5382 5384 5386 5388 5390 5392 5394 5396 5398 5400 5402 5404 5406 5408 5410 5411 5412 5414 5415 5416 5417 5417 5417 5418 5418 5418 5418 5418 5418 5417 5417 5417 5416 5416 5415 5414 5414 5413
5369 5370 5371 5372 5373 5375 5376 5378 5379 5382 5384 5386 5388 5390 5392 5394 5396 5398 5399 5401 5402 5404 5405 5406 5407 5408 5408 5408 5409 5409 5409 5409 5409 5409 5409 5408 5408 5407 5407 5406 5405 5405 5404